Station Historical Data
Daily Summary for May 21, 2017 Units:  English    Metric   Both
« Previous Day
Next Day »
Daily Weekly Monthly Yearly Custom
  High: Low: Average:
Temperature: 82.3 °F 59.4 °F 70.3 °F
Dew Point: 53.6 °F 45.3 °F 48.8 °F
Humidity: 65 % 30 % 48 %
Wind Speed: 15.0 mph 0.0 mph 1.7 mph
Wind Gust: 15.0 mph - -
Wind:- - SE
Pressure: 29.96 in 29.91 in -
Precipitation: 0.00 in    
Historical Graphs
 
 
Tabular Data for May 21, 2017
Time Temperature Dew Point Pressure Wind Wind Speed Wind Gust Humidity Rainfall Rate (Hourly) solar
00:02 64.4 °F 47.9 °F 29.94 in East 4.0 mph 7.0 mph 55 % 0.00 in 0.00 W/m2
00:07 64.3 °F 47.8 °F 29.94 in ESE 1.0 mph 6.0 mph 55 % 0.00 in 0.00 W/m2
00:09 64.2 °F 47.7 °F 29.94 in ESE 1.0 mph 7.0 mph 55 % 0.00 in 0.00 W/m2
00:15 64.2 °F 47.7 °F 29.94 in Calm   9.0 mph 55 % 0.00 in 0.00 W/m2
00:19 64.1 °F 47.6 °F 29.94 in ESE 2.0 mph 9.0 mph 55 % 0.00 in 0.00 W/m2
00:24 64.0 °F 47.5 °F 29.93 in East 2.0 mph 6.0 mph 55 % 0.00 in 0.00 W/m2
00:29 64.0 °F 47.5 °F 29.93 in East 1.0 mph 7.0 mph 55 % 0.00 in 0.00 W/m2
00:35 63.9 °F 47.9 °F 29.93 in Calm   5.0 mph 56 % 0.00 in 0.00 W/m2
00:40 63.9 °F 47.4 °F 29.93 in Calm   7.0 mph 55 % 0.00 in 0.00 W/m2
00:45 63.8 °F 46.8 °F 29.93 in East 2.0 mph 7.0 mph 54 % 0.00 in 0.00 W/m2
00:50 63.8 °F 47.3 °F 29.93 in East 9.0 mph 9.0 mph 55 % 0.00 in 0.00 W/m2
00:55 63.8 °F 46.8 °F 29.93 in ESE 4.0 mph 6.0 mph 54 % 0.00 in 0.00 W/m2
01:00 63.8 °F 46.8 °F 29.93 in East 4.0 mph 7.0 mph 54 % 0.00 in 0.00 W/m2
01:05 63.7 °F 46.8 °F 29.93 in SE 6.0 mph 7.0 mph 54 % 0.00 in 0.00 W/m2
01:06 63.7 °F 46.8 °F 29.93 in East 4.0 mph 4.0 mph 54 % 0.00 in 0.00 W/m2
01:11 63.7 °F 46.8 °F 29.93 in East 5.0 mph 5.0 mph 54 % 0.00 in 0.00 W/m2
01:16 63.6 °F 46.7 °F 29.93 in ESE 4.0 mph 8.0 mph 54 % 0.00 in 0.00 W/m2
01:21 63.6 °F 46.7 °F 29.93 in Calm   6.0 mph 54 % 0.00 in 0.00 W/m2
01:26 63.5 °F 46.6 °F 29.92 in Calm   5.0 mph 54 % 0.00 in 0.00 W/m2
01:31 63.5 °F 47.1 °F 29.93 in ESE 2.0 mph 6.0 mph 55 % 0.00 in 0.00 W/m2
01:36 63.4 °F 46.5 °F 29.92 in East 1.0 mph 8.0 mph 54 % 0.00 in 0.00 W/m2
01:41 63.4 °F 46.5 °F 29.92 in East 5.0 mph 5.0 mph 54 % 0.00 in 0.00 W/m2
01:46 63.3 °F 46.9 °F 29.92 in ESE 1.0 mph 8.0 mph 55 % 0.00 in 0.00 W/m2
01:52 63.3 °F 46.4 °F 29.92 in ESE 5.0 mph 9.0 mph 54 % 0.00 in 0.00 W/m2
01:57 63.3 °F 46.4 °F 29.92 in East 4.0 mph 5.0 mph 54 % 0.00 in 0.00 W/m2
02:02 63.2 °F 46.3 °F 29.92 in ESE 2.0 mph 5.0 mph 54 % 0.00 in 0.00 W/m2
02:07 63.1 °F 46.2 °F 29.92 in East 1.0 mph 5.0 mph 54 % 0.00 in 0.00 W/m2
02:12 63.0 °F 46.1 °F 29.92 in Calm   4.0 mph 54 % 0.00 in 0.00 W/m2
02:17 62.9 °F 46.5 °F 29.92 in East 1.0 mph 6.0 mph 55 % 0.00 in 0.00 W/m2
02:22 62.8 °F 46.4 °F 29.92 in East 2.0 mph 5.0 mph 55 % 0.00 in 0.00 W/m2
02:27 62.7 °F 46.3 °F 29.92 in Calm   4.0 mph 55 % 0.00 in 0.00 W/m2
02:32 62.6 °F 46.7 °F 29.92 in East 4.0 mph 9.0 mph 56 % 0.00 in 0.00 W/m2
02:37 62.5 °F 46.6 °F 29.92 in East 4.0 mph 7.0 mph 56 % 0.00 in 0.00 W/m2
02:42 62.4 °F 46.5 °F 29.92 in East 1.0 mph 6.0 mph 56 % 0.00 in 0.00 W/m2
02:47 62.3 °F 46.4 °F 29.92 in East 4.0 mph 6.0 mph 56 % 0.00 in 0.00 W/m2
02:52 62.2 °F 46.3 °F 29.92 in East 5.0 mph 8.0 mph 56 % 0.00 in 0.00 W/m2
02:57 62.1 °F 46.2 °F 29.92 in ESE 2.0 mph 7.0 mph 56 % 0.00 in 0.00 W/m2
03:02 62.0 °F 46.6 °F 29.92 in East 8.0 mph 8.0 mph 57 % 0.00 in 0.00 W/m2
03:07 61.9 °F 46.5 °F 29.92 in ESE 1.0 mph 6.0 mph 57 % 0.00 in 0.00 W/m2
03:12 61.8 °F 46.4 °F 29.92 in East 1.0 mph 6.0 mph 57 % 0.00 in 0.00 W/m2
03:17 61.7 °F 46.8 °F 29.92 in ESE 4.0 mph 7.0 mph 58 % 0.00 in 0.00 W/m2
03:22 61.6 °F 46.2 °F 29.92 in East 5.0 mph 7.0 mph 57 % 0.00 in 0.00 W/m2
03:27 61.6 °F 46.2 °F 29.92 in ESE 7.0 mph 8.0 mph 57 % 0.00 in 0.00 W/m2
03:32 61.5 °F 46.6 °F 29.92 in East 4.0 mph 7.0 mph 58 % 0.00 in 0.00 W/m2
03:33 61.5 °F 46.6 °F 29.92 in Calm   7.0 mph 58 % 0.00 in 0.00 W/m2
03:38 61.4 °F 46.0 °F 29.92 in East 4.0 mph 6.0 mph 57 % 0.00 in 0.00 W/m2
03:43 61.3 °F 46.0 °F 29.92 in ESE 1.0 mph 7.0 mph 57 % 0.00 in 0.00 W/m2
03:48 61.2 °F 45.9 °F 29.92 in ESE 6.0 mph 6.0 mph 57 % 0.00 in 0.00 W/m2
03:53 61.2 °F 45.9 °F 29.92 in ESE 2.0 mph 6.0 mph 57 % 0.00 in 0.00 W/m2
03:58 61.1 °F 45.8 °F 29.92 in East 1.0 mph 5.0 mph 57 % 0.00 in 0.00 W/m2
04:03 61.0 °F 46.1 °F 29.92 in East 2.0 mph 5.0 mph 58 % 0.00 in 0.00 W/m2
04:08 61.0 °F 46.6 °F 29.92 in Calm   4.0 mph 59 % 0.00 in 0.00 W/m2
04:13 60.9 °F 46.5 °F 29.92 in East 1.0 mph 5.0 mph 59 % 0.00 in 0.00 W/m2
04:18 60.8 °F 46.4 °F 29.92 in East 2.0 mph 5.0 mph 59 % 0.00 in 0.00 W/m2
04:23 60.6 °F 46.2 °F 29.92 in East 2.0 mph 5.0 mph 59 % 0.00 in 0.00 W/m2
04:28 60.5 °F 46.1 °F 29.92 in East 2.0 mph 5.0 mph 59 % 0.00 in 0.00 W/m2
04:33 60.4 °F 46.5 °F 29.91 in East 4.0 mph 4.0 mph 60 % 0.00 in 0.00 W/m2
04:38 60.3 °F 46.4 °F 29.91 in East 1.0 mph 4.0 mph 60 % 0.00 in 0.00 W/m2
04:43 60.3 °F 46.4 °F 29.91 in East 6.0 mph 6.0 mph 60 % 0.00 in 0.00 W/m2
04:48 60.2 °F 46.3 °F 29.91 in Calm   6.0 mph 60 % 0.00 in 0.00 W/m2
04:53 60.1 °F 46.2 °F 29.91 in ESE 2.0 mph 5.0 mph 60 % 0.00 in 0.00 W/m2
04:58 60.0 °F 46.1 °F 29.91 in ESE 4.0 mph 5.0 mph 60 % 0.00 in 0.00 W/m2
05:02 60.0 °F 46.1 °F 29.91 in ESE 4.0 mph 5.0 mph 60 % 0.00 in 0.00 W/m2
05:07 59.9 °F 46.0 °F 29.91 in ESE 4.0 mph 5.0 mph 60 % 0.00 in 0.00 W/m2
05:12 59.8 °F 45.9 °F 29.91 in ESE 2.0 mph 4.0 mph 60 % 0.00 in 0.00 W/m2
05:13 59.8 °F 45.5 °F 29.91 in ESE 2.0 mph 4.0 mph 59 % 0.00 in 0.00 W/m2
05:18 59.7 °F 45.4 °F 29.91 in ESE 5.0 mph 7.0 mph 59 % 0.00 in 0.00 W/m2
05:23 59.7 °F 45.8 °F 29.91 in ESE 1.0 mph 8.0 mph 60 % 0.00 in 0.00 W/m2
05:28 59.6 °F 45.7 °F 29.91 in East 4.0 mph 6.0 mph 60 % 0.00 in 0.00 W/m2
05:33 59.6 °F 45.7 °F 29.91 in East 4.0 mph 8.0 mph 60 % 0.00 in 0.00 W/m2
05:38 59.5 °F 45.6 °F 29.91 in East 1.0 mph 7.0 mph 60 % 0.00 in 0.00 W/m2
05:43 59.5 °F 45.6 °F 29.91 in East 4.0 mph 9.0 mph 60 % 0.00 in 5.00 W/m2
05:48 59.4 °F 46.0 °F 29.91 in ESE 1.0 mph 14.0 mph 61 % 0.00 in 7.00 W/m2
05:53 59.4 °F 46.0 °F 29.91 in East 2.0 mph 9.0 mph 61 % 0.00 in 9.00 W/m2
05:58 59.4 °F 45.5 °F 29.91 in East 8.0 mph 12.0 mph 60 % 0.00 in 11.00 W/m2
06:03 59.4 °F 45.5 °F 29.91 in ESE 4.0 mph 14.0 mph 60 % 0.00 in 12.00 W/m2
06:05 59.4 °F 45.5 °F 29.91 in East 5.0 mph 14.0 mph 60 % 0.00 in 14.00 W/m2
06:10 59.4 °F 45.5 °F 29.91 in ESE 11.0 mph 15.0 mph 60 % 0.00 in 16.00 W/m2
06:15 59.5 °F 45.6 °F 29.91 in ESE 15.0 mph 15.0 mph 60 % 0.00 in 21.00 W/m2
06:20 59.5 °F 45.6 °F 29.91 in East 8.0 mph 15.0 mph 60 % 0.00 in 32.00 W/m2
06:25 59.6 °F 45.3 °F 29.91 in East 1.0 mph 13.0 mph 59 % 0.00 in 42.00 W/m2
06:30 59.6 °F 45.7 °F 29.92 in ESE 1.0 mph 6.0 mph 60 % 0.00 in 53.00 W/m2
06:35 59.7 °F 45.4 °F 29.92 in Calm   8.0 mph 59 % 0.00 in 67.00 W/m2
06:40 59.7 °F 45.8 °F 29.92 in East 1.0 mph 4.0 mph 60 % 0.00 in 83.00 W/m2
06:45 59.8 °F 45.9 °F 29.92 in Calm   5.0 mph 60 % 0.00 in 97.00 W/m2
06:50 59.9 °F 46.0 °F 29.92 in Calm   4.0 mph 60 % 0.00 in 114.00 W/m2
06:55 59.9 °F 46.0 °F 29.92 in Calm   2.0 mph 60 % 0.00 in 132.00 W/m2
07:01 60.0 °F 46.1 °F 29.93 in Calm   4.0 mph 60 % 0.00 in 151.00 W/m2
07:06 60.0 °F 46.1 °F 29.93 in ESE 2.0 mph 4.0 mph 60 % 0.00 in 172.00 W/m2
07:11 60.1 °F 46.2 °F 29.93 in Calm   1.0 mph 60 % 0.00 in 193.00 W/m2
07:16 60.2 °F 46.7 °F 29.93 in Calm   1.0 mph 61 % 0.00 in 214.00 W/m2
07:21 60.3 °F 46.8 °F 29.93 in Calm   1.0 mph 61 % 0.00 in 236.00 W/m2
07:26 60.4 °F 46.9 °F 29.93 in East 1.0 mph 4.0 mph 61 % 0.00 in 257.00 W/m2
07:31 60.6 °F 47.1 °F 29.93 in Calm   1.0 mph 61 % 0.00 in 274.00 W/m2
07:36 60.7 °F 46.3 °F 29.93 in ESE 1.0 mph 2.0 mph 59 % 0.00 in 292.00 W/m2
07:41 60.9 °F 47.4 °F 29.93 in ESE 1.0 mph 4.0 mph 61 % 0.00 in 308.00 W/m2
07:46 61.1 °F 47.6 °F 29.93 in ESE 4.0 mph 4.0 mph 61 % 0.00 in 325.00 W/m2
07:51 61.3 °F 47.8 °F 29.93 in ESE 1.0 mph 4.0 mph 61 % 0.00 in 341.00 W/m2
07:56 61.5 °F 47.9 °F 29.93 in Calm   5.0 mph 61 % 0.00 in 360.00 W/m2
08:01 61.6 °F 48.5 °F 29.93 in East 2.0 mph 2.0 mph 62 % 0.00 in 378.00 W/m2
08:06 61.8 °F 49.1 °F 29.93 in East 1.0 mph 4.0 mph 63 % 0.00 in 394.00 W/m2
08:11 62.0 °F 49.3 °F 29.93 in ESE 1.0 mph 2.0 mph 63 % 0.00 in 410.00 W/m2
08:16 62.2 °F 49.9 °F 29.93 in East 2.0 mph 6.0 mph 64 % 0.00 in 427.00 W/m2
08:21 62.5 °F 50.2 °F 29.93 in Calm   1.0 mph 64 % 0.00 in 443.00 W/m2
08:26 62.9 °F 50.5 °F 29.93 in East 4.0 mph 5.0 mph 64 % 0.00 in 461.00 W/m2
08:31 63.2 °F 51.2 °F 29.93 in East 1.0 mph 2.0 mph 65 % 0.00 in 473.00 W/m2
08:36 63.6 °F 50.8 °F 29.93 in Calm   4.0 mph 63 % 0.00 in 490.00 W/m2
08:41 63.9 °F 50.6 °F 29.93 in Calm     62 % 0.00 in 506.00 W/m2
08:46 64.2 °F 50.9 °F 29.93 in Calm     62 % 0.00 in 522.00 W/m2
08:51 64.5 °F 49.9 °F 29.93 in East 2.0 mph 5.0 mph 59 % 0.00 in 538.00 W/m2
08:56 64.9 °F 51.2 °F 29.94 in Calm     61 % 0.00 in 555.00 W/m2
09:01 65.3 °F 51.1 °F 29.94 in Calm   4.0 mph 60 % 0.00 in 568.00 W/m2
09:06 65.7 °F 51.9 °F 29.94 in Calm   2.0 mph 61 % 0.00 in 584.00 W/m2
09:11 66.0 °F 51.3 °F 29.94 in East 2.0 mph 4.0 mph 59 % 0.00 in 599.00 W/m2
09:16 66.5 °F 52.2 °F 29.94 in Calm   1.0 mph 60 % 0.00 in 615.00 W/m2
09:21 67.0 °F 52.2 °F 29.94 in Calm   2.0 mph 59 % 0.00 in 629.00 W/m2
09:26 67.3 °F 51.6 °F 29.94 in East 1.0 mph 3.0 mph 57 % 0.00 in 643.00 W/m2
09:31 67.7 °F 51.0 °F 29.94 in ENE 2.0 mph 2.0 mph 55 % 0.00 in 657.00 W/m2
09:36 68.1 °F 49.8 °F 29.94 in Calm     52 % 0.00 in 673.00 W/m2
09:41 68.5 °F 51.2 °F 29.94 in ESE 6.0 mph 6.0 mph 54 % 0.00 in 687.00 W/m2
09:46 68.9 °F 51.1 °F 29.94 in Calm   1.0 mph 53 % 0.00 in 701.00 W/m2
09:51 69.3 °F 50.9 °F 29.94 in ESE 1.0 mph 4.0 mph 52 % 0.00 in 714.00 W/m2
09:56 69.6 °F 49.6 °F 29.94 in Calm   6.0 mph 49 % 0.00 in 726.00 W/m2
10:02 70.0 °F 48.9 °F 29.94 in ESE 2.0 mph 5.0 mph 47 % 0.00 in 738.00 W/m2
10:07 70.4 °F 50.3 °F 29.94 in Calm   2.0 mph 49 % 0.00 in 749.00 W/m2
10:12 70.8 °F 49.6 °F 29.94 in Calm   4.0 mph 47 % 0.00 in 759.00 W/m2
10:17 71.3 °F 48.3 °F 29.94 in Calm   2.0 mph 44 % 0.00 in 772.00 W/m2
10:22 71.8 °F 46.9 °F 29.94 in Calm   1.0 mph 41 % 0.00 in 784.00 W/m2
10:27 72.3 °F 49.8 °F 29.94 in ESE 6.0 mph 6.0 mph 45 % 0.00 in 795.00 W/m2
10:32 72.7 °F 50.8 °F 29.94 in Calm   1.0 mph 46 % 0.00 in 807.00 W/m2
10:37 73.2 °F 51.2 °F 29.94 in SE 4.0 mph 6.0 mph 46 % 0.00 in 814.00 W/m2
10:42 73.6 °F 49.1 °F 29.94 in Calm     42 % 0.00 in 824.00 W/m2
10:47 74.3 °F 48.4 °F 29.94 in Calm   1.0 mph 40 % 0.00 in 835.00 W/m2
10:52 74.7 °F 51.4 °F 29.94 in South 1.0 mph 2.0 mph 44 % 0.00 in 846.00 W/m2
10:57 75.1 °F 51.1 °F 29.94 in Calm   1.0 mph 43 % 0.00 in 854.00 W/m2
11:02 75.5 °F 50.2 °F 29.94 in SSW 2.0 mph 2.0 mph 41 % 0.00 in 865.00 W/m2
11:07 75.7 °F 49.0 °F 29.94 in Calm     39 % 0.00 in 874.00 W/m2
11:12 76.0 °F 50.0 °F 29.94 in Calm   1.0 mph 40 % 0.00 in 881.00 W/m2
11:17 76.4 °F 51.6 °F 29.94 in Calm   2.0 mph 42 % 0.00 in 886.00 W/m2
11:22 76.6 °F 52.5 °F 29.94 in South 5.0 mph 7.0 mph 43 % 0.00 in 895.00 W/m2
11:27 76.9 °F 50.8 °F 29.94 in Calm   1.0 mph 40 % 0.00 in 902.00 W/m2
11:37 77.3 °F 50.4 °F 29.94 in Calm   1.0 mph 39 % 0.00 in 916.00 W/m2
11:42 77.6 °F 51.4 °F 29.94 in Calm   9.0 mph 40 % 0.00 in 921.00 W/m2
11:47 77.8 °F 50.2 °F 29.94 in SW 5.0 mph 7.0 mph 38 % 0.00 in 925.00 W/m2
11:52 78.3 °F 52.0 °F 29.94 in WSW 6.0 mph 7.0 mph 40 % 0.00 in 930.00 W/m2
11:57 78.5 °F 51.5 °F 29.94 in Calm     39 % 0.00 in 932.00 W/m2
12:02 78.9 °F 52.5 °F 29.94 in Calm   1.0 mph 40 % 0.00 in 937.00 W/m2
12:07 79.4 °F 52.3 °F 29.94 in West 5.0 mph 9.0 mph 39 % 0.00 in 942.00 W/m2
12:12 79.6 °F 51.1 °F 29.94 in Calm   1.0 mph 37 % 0.00 in 947.00 W/m2
12:17 79.5 °F 51.0 °F 29.94 in Calm     37 % 0.00 in 947.00 W/m2
12:22 79.7 °F 52.6 °F 29.94 in SW 1.0 mph 8.0 mph 39 % 0.00 in 951.00 W/m2
12:27 79.9 °F 50.6 °F 29.94 in South 2.0 mph 2.0 mph 36 % 0.00 in 954.00 W/m2
12:32 80.1 °F 50.8 °F 29.94 in Calm   7.0 mph 36 % 0.00 in 954.00 W/m2
12:37 80.4 °F 52.5 °F 29.94 in WSW 9.0 mph 9.0 mph 38 % 0.00 in 953.00 W/m2
12:42 80.7 °F 52.0 °F 29.94 in Calm   7.0 mph 37 % 0.00 in 953.00 W/m2
12:47 81.0 °F 50.8 °F 29.94 in SSW 3.0 mph 10.0 mph 35 % 0.00 in 954.00 W/m2
12:52 81.4 °F 50.4 °F 29.93 in Calm   1.0 mph 34 % 0.00 in 953.00 W/m2
12:58 81.7 °F 52.9 °F 29.93 in Calm   9.0 mph 37 % 0.00 in 953.00 W/m2
13:03 81.8 °F 50.7 °F 29.93 in SW 3.0 mph 3.0 mph 34 % 0.00 in 954.00 W/m2
13:08 81.8 °F 50.7 °F 29.93 in SSW 9.0 mph 9.0 mph 34 % 0.00 in 956.00 W/m2
13:13 82.0 °F 53.2 °F 29.93 in SSW 5.0 mph 8.0 mph 37 % 0.00 in 951.00 W/m2
13:18 82.2 °F 51.1 °F 29.93 in SW 6.0 mph 7.0 mph 34 % 0.00 in 949.00 W/m2
13:23 81.9 °F 47.5 °F 29.93 in Calm   6.0 mph 30 % 0.00 in 946.00 W/m2
13:28 81.2 °F 48.6 °F 29.94 in WSW 2.0 mph 9.0 mph 32 % 0.00 in 946.00 W/m2
13:33 81.0 °F 49.2 °F 29.93 in SW 1.0 mph 1.0 mph 33 % 0.00 in 944.00 W/m2
13:38 81.3 °F 51.1 °F 29.93 in Calm   1.0 mph 35 % 0.00 in 940.00 W/m2
13:43 81.6 °F 49.7 °F 29.93 in WNW 2.0 mph 7.0 mph 33 % 0.00 in 939.00 W/m2
13:48 81.5 °F 49.7 °F 29.93 in SW 8.0 mph 12.0 mph 33 % 0.00 in 933.00 W/m2
13:53 81.6 °F 48.9 °F 29.93 in West 6.0 mph 11.0 mph 32 % 0.00 in 928.00 W/m2
13:54 81.7 °F 49.0 °F 29.93 in Calm   11.0 mph 32 % 0.00 in 928.00 W/m2
13:59 81.7 °F 48.2 °F 29.93 in Calm   6.0 mph 31 % 0.00 in 923.00 W/m2
14:02 81.9 °F 49.2 °F 29.93 in South 4.0 mph 4.0 mph 32 % 0.00 in 921.00 W/m2
14:07 82.0 °F 49.3 °F 29.93 in SSW 8.0 mph 11.0 mph 32 % 0.00 in 916.00 W/m2
14:12 82.3 °F 50.3 °F 29.93 in WSW 10.0 mph 10.0 mph 33 % 0.00 in 905.00 W/m2
14:17 82.3 °F 50.3 °F 29.93 in Calm   6.0 mph 33 % 0.00 in 902.00 W/m2
14:22 81.8 °F 49.9 °F 29.93 in Calm   2.0 mph 33 % 0.00 in 896.00 W/m2
14:27 81.4 °F 50.4 °F 29.93 in SSW 4.0 mph 8.0 mph 34 % 0.00 in 888.00 W/m2
14:32 81.6 °F 51.3 °F 29.93 in WNW 6.0 mph 9.0 mph 35 % 0.00 in 879.00 W/m2
14:37 81.5 °F 50.5 °F 29.93 in SW 4.0 mph 13.0 mph 34 % 0.00 in 875.00 W/m2
14:47 81.7 °F 49.0 °F 29.93 in Calm   2.0 mph 32 % 0.00 in 861.00 W/m2
14:52 81.4 °F 48.7 °F 29.93 in Calm   2.0 mph 32 % 0.00 in 849.00 W/m2
14:57 81.4 °F 48.7 °F 29.93 in WSW 5.0 mph 11.0 mph 32 % 0.00 in 837.00 W/m2
15:02 81.4 °F 50.4 °F 29.93 in Calm   1.0 mph 34 % 0.00 in 831.00 W/m2
15:07 81.5 °F 48.8 °F 29.93 in Calm   9.0 mph 32 % 0.00 in 821.00 W/m2
15:12 81.6 °F 49.7 °F 29.93 in SW 1.0 mph 9.0 mph 33 % 0.00 in 810.00 W/m2
15:17 81.7 °F 49.0 °F 29.93 in Calm   6.0 mph 32 % 0.00 in 802.00 W/m2
15:22 81.6 °F 48.9 °F 29.93 in West 2.0 mph 9.0 mph 32 % 0.00 in 789.00 W/m2
15:27 81.5 °F 49.7 °F 29.93 in Calm   8.0 mph 33 % 0.00 in 779.00 W/m2
15:32 81.4 °F 48.7 °F 29.93 in Calm     32 % 0.00 in 768.00 W/m2
15:37 81.3 °F 50.3 °F 29.93 in Calm   7.0 mph 34 % 0.00 in 756.00 W/m2
15:42 81.2 °F 49.4 °F 29.93 in Calm   6.0 mph 33 % 0.00 in 744.00 W/m2
15:47 81.1 °F 50.1 °F 29.93 in Calm   2.0 mph 34 % 0.00 in 728.00 W/m2
15:52 80.9 °F 49.9 °F 29.93 in NW 5.0 mph 9.0 mph 34 % 0.00 in 717.00 W/m2
15:57 80.7 °F 49.8 °F 29.93 in Calm   5.0 mph 34 % 0.00 in 707.00 W/m2
16:02 80.5 °F 49.6 °F 29.93 in West 6.0 mph 6.0 mph 34 % 0.00 in 694.00 W/m2
16:07 80.5 °F 50.4 °F 29.93 in NW 4.0 mph 8.0 mph 35 % 0.00 in 682.00 W/m2
16:12 80.5 °F 50.4 °F 29.93 in West 5.0 mph 7.0 mph 35 % 0.00 in 668.00 W/m2
16:17 80.5 °F 48.8 °F 29.93 in Calm   2.0 mph 33 % 0.00 in 656.00 W/m2
16:22 80.5 °F 49.6 °F 29.93 in WNW 2.0 mph 2.0 mph 34 % 0.00 in 642.00 W/m2
16:27 80.4 °F 49.5 °F 29.92 in NW 1.0 mph 5.0 mph 34 % 0.00 in 628.00 W/m2
16:32 80.3 °F 50.2 °F 29.92 in Calm   7.0 mph 35 % 0.00 in 615.00 W/m2
16:33 80.3 °F 50.2 °F 29.92 in Calm   7.0 mph 35 % 0.00 in 615.00 W/m2
16:38 80.3 °F 49.4 °F 29.92 in West 5.0 mph 5.0 mph 34 % 0.00 in 599.00 W/m2
16:43 80.2 °F 50.1 °F 29.93 in Calm   6.0 mph 35 % 0.00 in 585.00 W/m2
16:48 80.2 °F 49.3 °F 29.92 in Calm     34 % 0.00 in 563.00 W/m2
16:53 80.2 °F 49.3 °F 29.92 in West 1.0 mph 6.0 mph 34 % 0.00 in 552.00 W/m2
16:58 80.1 °F 47.6 °F 29.92 in Calm   5.0 mph 32 % 0.00 in 543.00 W/m2
17:03 80.1 °F 47.6 °F 29.92 in WSW 3.0 mph 7.0 mph 32 % 0.00 in 527.00 W/m2
17:08 80.2 °F 47.7 °F 29.92 in Calm   5.0 mph 32 % 0.00 in 515.00 W/m2
17:13 80.1 °F 47.6 °F 29.92 in WNW 6.0 mph 7.0 mph 32 % 0.00 in 496.00 W/m2
17:18 80.1 °F 47.6 °F 29.92 in NW 1.0 mph 7.0 mph 32 % 0.00 in 482.00 W/m2
17:23 80.0 °F 49.1 °F 29.92 in Calm     34 % 0.00 in 466.00 W/m2
17:28 80.0 °F 49.9 °F 29.92 in WSW 7.0 mph 7.0 mph 35 % 0.00 in 452.00 W/m2
17:33 79.9 °F 48.3 °F 29.92 in WNW 6.0 mph 7.0 mph 33 % 0.00 in 429.00 W/m2
17:38 79.8 °F 48.2 °F 29.92 in Calm   2.0 mph 33 % 0.00 in 417.00 W/m2
17:43 79.8 °F 48.2 °F 29.92 in Calm   1.0 mph 33 % 0.00 in 401.00 W/m2
17:48 79.8 °F 49.0 °F 29.92 in Calm   2.0 mph 34 % 0.00 in 390.00 W/m2
17:53 79.7 °F 49.7 °F 29.92 in WNW 1.0 mph 3.0 mph 35 % 0.00 in 367.00 W/m2
17:54 79.7 °F 49.7 °F 29.92 in Calm   3.0 mph 35 % 0.00 in 362.00 W/m2
17:59 79.6 °F 49.6 °F 29.92 in Calm   5.0 mph 35 % 0.00 in 345.00 W/m2
18:04 79.6 °F 48.8 °F 29.91 in WNW 3.0 mph 4.0 mph 34 % 0.00 in 322.00 W/m2
18:09 79.5 °F 48.7 °F 29.92 in Calm   4.0 mph 34 % 0.00 in 313.00 W/m2
18:14 79.4 °F 51.6 °F 29.92 in Calm   1.0 mph 38 % 0.00 in 272.00 W/m2
18:19 79.4 °F 51.6 °F 29.92 in Calm   3.0 mph 38 % 0.00 in 271.00 W/m2
18:24 79.2 °F 52.1 °F 29.92 in Calm   3.0 mph 39 % 0.00 in 244.00 W/m2
18:29 79.0 °F 52.0 °F 29.92 in Calm   3.0 mph 39 % 0.00 in 211.00 W/m2
18:34 78.7 °F 51.7 °F 29.92 in Calm   4.0 mph 39 % 0.00 in 186.00 W/m2
18:39 78.4 °F 52.1 °F 29.92 in Calm   2.0 mph 40 % 0.00 in 190.00 W/m2
18:44 78.2 °F 52.6 °F 29.92 in Calm   3.0 mph 41 % 0.00 in 172.00 W/m2
18:49 78.0 °F 52.4 °F 29.92 in WNW 3.0 mph 7.0 mph 41 % 0.00 in 123.00 W/m2
18:54 77.7 °F 52.8 °F 29.92 in Calm   1.0 mph 42 % 0.00 in 121.00 W/m2
18:59 77.4 °F 51.9 °F 29.92 in Calm     41 % 0.00 in 148.00 W/m2
19:04 77.1 °F 51.6 °F 29.92 in Calm     41 % 0.00 in 141.00 W/m2
19:09 76.9 °F 52.1 °F 29.92 in Calm     42 % 0.00 in 127.00 W/m2
19:14 76.5 °F 51.7 °F 29.92 in Calm   1.0 mph 42 % 0.00 in 114.00 W/m2
19:19 76.2 °F 53.3 °F 29.92 in Calm     45 % 0.00 in 93.00 W/m2
19:24 75.8 °F 53.6 °F 29.92 in Calm     46 % 0.00 in 67.00 W/m2
19:29 75.5 °F 52.7 °F 29.92 in Calm     45 % 0.00 in 62.00 W/m2
19:34 75.2 °F 53.6 °F 29.92 in Calm     47 % 0.00 in 39.00 W/m2
19:39 74.9 °F 53.3 °F 29.92 in Calm     47 % 0.00 in 32.00 W/m2
19:44 74.5 °F 53.0 °F 29.92 in Calm     47 % 0.00 in 26.00 W/m2
19:49 74.2 °F 52.7 °F 29.93 in Calm     47 % 0.00 in 21.00 W/m2
19:54 73.8 °F 52.9 °F 29.93 in Calm     48 % 0.00 in 18.00 W/m2
19:59 73.4 °F 52.0 °F 29.93 in Calm     47 % 0.00 in 12.00 W/m2
20:04 73.0 °F 51.6 °F 29.93 in Calm     47 % 0.00 in 11.00 W/m2
20:09 72.6 °F 51.2 °F 29.93 in Calm     47 % 0.00 in 7.00 W/m2
20:14 72.2 °F 50.3 °F 29.93 in Calm     46 % 0.00 in 0.00 W/m2
20:19 71.8 °F 51.1 °F 29.93 in Calm     48 % 0.00 in 0.00 W/m2
20:24 71.5 °F 50.2 °F 29.93 in Calm     47 % 0.00 in 0.00 W/m2
20:29 71.2 °F 50.0 °F 29.93 in Calm     47 % 0.00 in 0.00 W/m2
20:34 70.8 °F 49.0 °F 29.93 in Calm     46 % 0.00 in 0.00 W/m2
20:39 70.6 °F 48.8 °F 29.94 in Calm     46 % 0.00 in 0.00 W/m2
20:44 70.3 °F 48.6 °F 29.94 in Calm     46 % 0.00 in 0.00 W/m2
20:49 70.1 °F 47.8 °F 29.94 in Calm     45 % 0.00 in 0.00 W/m2
20:54 69.9 °F 48.2 °F 29.94 in Calm     46 % 0.00 in 0.00 W/m2
20:59 69.7 °F 48.0 °F 29.94 in Calm     46 % 0.00 in 0.00 W/m2
21:04 69.6 °F 48.5 °F 29.94 in Calm     47 % 0.00 in 0.00 W/m2
21:09 69.5 °F 48.4 °F 29.94 in Calm     47 % 0.00 in 0.00 W/m2
21:14 69.3 °F 47.7 °F 29.94 in Calm     46 % 0.00 in 0.00 W/m2
21:19 69.2 °F 47.6 °F 29.94 in Calm     46 % 0.00 in 0.00 W/m2
21:24 69.1 °F 47.5 °F 29.94 in Calm     46 % 0.00 in 0.00 W/m2
21:29 69.0 °F 47.4 °F 29.94 in Calm     46 % 0.00 in 0.00 W/m2
21:34 68.9 °F 47.9 °F 29.95 in Calm     47 % 0.00 in 0.00 W/m2
21:39 68.8 °F 48.3 °F 29.95 in Calm     48 % 0.00 in 0.00 W/m2
21:44 68.7 °F 47.7 °F 29.95 in Calm     47 % 0.00 in 0.00 W/m2
21:49 68.6 °F 48.2 °F 29.95 in Calm     48 % 0.00 in 0.00 W/m2
21:54 68.6 °F 48.2 °F 29.95 in Calm     48 % 0.00 in 0.00 W/m2
21:59 68.6 °F 49.2 °F 29.95 in Calm     50 % 0.00 in 0.00 W/m2
22:05 68.5 °F 48.6 °F 29.95 in Calm     49 % 0.00 in 0.00 W/m2
22:10 68.4 °F 48.5 °F 29.96 in Calm     49 % 0.00 in 0.00 W/m2
22:15 68.5 °F 48.6 °F 29.96 in Calm   3.0 mph 49 % 0.00 in 0.00 W/m2
22:20 68.4 °F 49.1 °F 29.96 in Calm   2.0 mph 50 % 0.00 in 0.00 W/m2
22:25 68.4 °F 49.1 °F 29.96 in Calm   2.0 mph 50 % 0.00 in 0.00 W/m2
22:30 68.4 °F 48.5 °F 29.96 in NE 1.0 mph 1.0 mph 49 % 0.00 in 0.00 W/m2
22:35 68.4 °F 49.1 °F 29.96 in Calm   1.0 mph 50 % 0.00 in 0.00 W/m2
22:40 68.3 °F 49.5 °F 29.96 in Calm   2.0 mph 51 % 0.00 in 0.00 W/m2
22:46 68.3 °F 49.0 °F 29.96 in Calm   2.0 mph 50 % 0.00 in 0.00 W/m2
22:51 68.3 °F 49.5 °F 29.96 in East 1.0 mph 2.0 mph 51 % 0.00 in 0.00 W/m2
22:56 68.3 °F 49.5 °F 29.96 in Calm   2.0 mph 51 % 0.00 in 0.00 W/m2
23:00 68.3 °F 50.0 °F 29.96 in Calm   4.0 mph 52 % 0.00 in 0.00 W/m2
23:06 68.2 °F 49.9 °F 29.96 in East 1.0 mph 2.0 mph 52 % 0.00 in 0.00 W/m2
23:11 68.1 °F 50.3 °F 29.95 in East 1.0 mph 4.0 mph 53 % 0.00 in 0.00 W/m2
23:16 68.1 °F 49.8 °F 29.96 in Calm   2.0 mph 52 % 0.00 in 0.00 W/m2
23:21 68.0 °F 50.2 °F 29.96 in Calm   4.0 mph 53 % 0.00 in 0.00 W/m2
23:26 67.9 °F 49.7 °F 29.96 in Calm   6.0 mph 52 % 0.00 in 0.00 W/m2
23:31 67.9 °F 50.2 °F 29.96 in Calm   1.0 mph 53 % 0.00 in 0.00 W/m2
23:36 67.9 °F 50.2 °F 29.96 in East 2.0 mph 5.0 mph 53 % 0.00 in 0.00 W/m2
23:41 67.8 °F 50.1 °F 29.96 in Calm   4.0 mph 53 % 0.00 in 0.00 W/m2
23:46 67.7 °F 50.0 °F 29.96 in East 1.0 mph 2.0 mph 53 % 0.00 in 0.00 W/m2
23:51 67.6 °F 49.9 °F 29.96 in East 1.0 mph 1.0 mph 53 % 0.00 in 0.00 W/m2
23:56 67.6 °F 49.9 °F 29.96 in East 1.0 mph 4.0 mph 53 % 0.00 in 0.00 W/m2
Juneau County Weather
Compliments of Weather Underground - 4.5 mb
 WU-history PHP script courtesy of   Juneau County Weather.
powered by Cumulus v1.9.3 (1059)
Ambient Weather VWS v14.00
Top Contact Website Map Copyright © 2007 - 2018 Foresthillweather.com Never base important decisions on this or any weather information obtained from the Internet